Location: *
(44.1392°N, 4.8079°E)
Time: 22:05:03
(UTC+00:00)

Cosmos 1758 Rocket - Pass Details

Date: 21 June 2021
Orbit: 602 x 636 km, 82.5° (Epoch: 02 August)

Event Time Altitude Azimuth Distance (km) Brightness Sun altitude
Exits shadow 00:05:44 52° 246° (WSW) 781 3.8 -22.2°
Maximum altitude 00:06:21 58° 281° (W) 735 3.9 -22.2°
Drops below altitude 10° 00:10:43 10° 1° (N) 1,996 7.3 -22.1°
Sets 00:12:59 0° 5° (N) 2,901 8.5 -22.1°
